Location: Biltmore Gardens
(41.6070°N, 83.4666°W)
Time: 15:10:50
(UTC+00:00)

Cosmos 1238 Rocket - Pass Details

Date: 14 July 2020
Orbit: 374 x 1030 km, 82.9° (Epoch: 13 August)

Event Time Altitude Azimuth Distance (km) Brightness Sun altitude
Exits shadow 05:46:47 47° 91° (E) 1,005 4.0 -26.8°
Drops below altitude 10° 05:51:15 10° 21° (NNE) 2,110 6.7 -26.7°
Sets 05:53:23 0° 15° (NNE) 2,924 7.8 -26.7°
